Overview Statistics Trail Chart Weather Telemetry Raw packets
 

This is the latest recevied weather packets stored in our database for station/object KB1WCR. If no packets are shown the sender has not sent any weather packets the latest 10 day(s).

<< 96 97 98 99 100 101 102 >>
Time Temp. Humidity Pressure Rain* Wind** Luminosity Snow
1787705541 17.22° C 99% 1013.8 hPa 0 mm - 0 W/m² -
1787705237 17.22° C 99% 1013.7 hPa 0 mm - 0 W/m² -
1787704937 17.22° C 99% 1013.6 hPa 0 mm - 0 W/m² -
1787704633 17.22° C 99% 1013.4 hPa 0 mm - 0 W/m² -
1787704329 17.78° C 99% 1013.5 hPa 0 mm - 0 W/m² -
1787704027 17.22° C 99% 1013.4 hPa 0 mm - 0 W/m² -
1787703722 17.22° C 99% 1013 hPa 0 mm - 0 W/m² -
1787703418 17.22° C 99% 1013.1 hPa 0 mm - 0 W/m² -
1787703113 17.22° C 98% 1013 hPa 0 mm - 0 W/m² -
1787702808 17.22° C 98% 1012.8 hPa 0 mm - 0 W/m² -
1787702504 17.78° C 97% 1012.6 hPa 0 mm - 0 W/m² -
1787702199 17.78° C 96% 1012.5 hPa 0 mm - 0 W/m² -
1787701894 17.78° C 96% 1012.5 hPa 0 mm - 0 W/m² -
1787701590 18.33° C 94% 1012.4 hPa 0 mm - 0 W/m² -
1787701285 18.89° C 94% 1012.4 hPa 0 mm - 1 W/m² -
1787700676 19.44° C 91% 1012.4 hPa 0 mm - 3 W/m² -
1787700372 19.44° C 90% 1012.3 hPa 0 mm - 5 W/m² -
1787700068 20° C 89% 1012.2 hPa 0 mm - 7 W/m² -
1787699764 20.56° C 88% 1012.3 hPa 0 mm - 10 W/m² -
1787699458 20.56° C 87% 1012.3 hPa 0 mm - 13 W/m² -
1787699154 21.11° C 86% 1012.1 hPa 0 mm - 16 W/m² -
1787698850 21.11° C 84% 1012.3 hPa 0 mm - 19 W/m² -
1787698546 21.67° C 83% 1012.2 hPa 0 mm - 22 W/m² -
1787698242 22.22° C 82% 1012.1 hPa 0 mm - 25 W/m² -
1787697937 22.78° C 79% 1011.9 hPa 0 mm - 27 W/m² -

* Rain latest hour (hover to see other rain measurements)
** Current wind speed in m/s (hover to see current wind gust speed)